Location: Gleizolles
(44.4833°N, 6.7667°E)
Time: 19:46:46
(UTC+00:00)

MetOp-A - Pass Details

Date: 09 April 2020
Orbit: 819 x 821 km, 98.5° (Epoch: 02 June)

Event Time Altitude Azimuth Distance (km) Brightness Sun altitude
Exits shadow 19:13:31 - 147° (SSE) 2,454 6.1 -11.5°
Reaches altitude 10° 19:13:37 10° 147° (SSE) 2,412 6.1 -11.5°
Maximum altitude 19:18:49 55° 71° (ENE) 988 4.3 -12.4°
Drops below altitude 10° 19:24:02 10° 355° (N) 2,428 7.0 -13.2°
Sets 19:26:26 0° 351° (N) 3,365 7.8 -13.6°
